Tracking 30685 objects as of 18-Jun-2025
HD Live streaming from Space Station
objects crossing your sky now

NOAA 16 DEB

Track NOAA 16 DEB now!
10-day predictions


NORAD ID: 41162
Int'l Code: 2000-055CV
Perigee: 794.9 km
Apogee: 841.1 km
Inclination: 98.7 °
Period: 101.1 minutes
Semi major axis: 7188 km
RCS: Unknown
Launch date: September 21, 2000
Source: United States (US)
Launch site: AIR FORCE WESTERN TEST RANGE (AFWTR)

Note: This is SATELLITE DEBRIS
Your satellite tracking list
Your tracking list is empty




NASA's NSSDC Master Catalog

Two Line Element Set (TLE):
1 41162U 00055CV  25169.39242024  .00003370  00000-0  14704-2 0  9994
2 41162  98.7325 230.2582 0032158 166.2230 193.9834 14.24296535491834
Source of the keplerian elements: AFSPC